{"data":{"norad_id":46905,"epoch":"2026-05-25T01:46:48.536832Z","epoch_age_seconds":75474,"freshness":"FRESH","line1":"1 46905U 20081A   26145.07417288  .00002470  00000+0  19323-3 0  9993","line2":"2 46905  36.9000   1.5211 0011996 326.6460  33.3525 15.01461619303996","mean_motion":15.01461619,"eccentricity":0.0011996,"inclination_deg":36.9,"raan_deg":1.5211,"arg_perigee_deg":326.646,"mean_anomaly_deg":33.3525,"bstar":0.00019323,"rev_number":30399,"period_min":95.906547445353,"perigee_km":554.06259926893,"apogee_km":570.71430793722,"semimajor_km":6940.5254536031,"source":"CELESTRAK","updated_at":"2026-05-25T13:37:56.367246Z"}}